Regional Weather Roundup
Issued by NWS

Home | Current Version | Previous Version | Graphics & Text | Print | Product List | Glossary On
Versions: 1 2 3 4 5 6 7 8 9 10 11 12 13 14 15 16 17 18 19 20 21 22 23 24 25 26 27 28 29 30 31 32 33 34 35 36 37 38 39 40 41 42 43 44 45 46 47 48 49 50
000
ASUS43 KLMK 050010
RWRKY
KENTUCKY REGIONAL WEATHER ROUNDUP
NATIONAL WEATHER SERVICE LOUISVILLE KY
800 PM EDT FRI SEP 04 2015

NOTE "FAIR" INDICATES FEW OR NO CLOUDS BELOW 12,000 FEET
WITH NO SIGNIFICANT WEATHER AND/OR OBSTRUCTIONS TO VISIBILITY.

KYZ001>023-026-027-061>063-070>075-050100-
WESTERN AND SOUTH CENTRAL KENTUCKY

CITY           SKY/WX    TMP DP  RH WIND       PRES   REMARKS
PADUCAH        FAIR      84  71  65 CALM      29.98S
HENDERSON      FAIR      86  72  62 CALM      29.98S HX  92
OWENSBORO      FAIR      89  67  48 SE3       30.00S HX  92
HOPKINSVILLE   FAIR      84  69  59 NE2       29.99S
BOWLING GREEN  FAIR      85  62  46 CALM      30.00S
GLASGOW        FAIR      79  68  67 CALM      30.01S
$$

KYZ024-025-028>034-038-045-046-053-050100-
NORTH CENTRAL KENTUCKY

CITY           SKY/WX    TMP DP  RH WIND       PRES   REMARKS
LOUISVILLE/SDF FAIR      89  62  40 W6        30.00S
LOUISVILLE/LOU FAIR      91  63  39 CALM      30.01S HX  92
FORT KNOX      FAIR      82  71  71 N2        30.01S
$$

KYZ035>037-039>044-047>052-055>060-089>105-050100-
NORTHEAST KENTUCKY

CITY           SKY/WX    TMP DP  RH WIND       PRES   REMARKS
LEXINGTON      FAIR      85  64  49 N5        30.05R THUNDER
COVINGTON      TSTM      74  68  81 NE12      30.08S
FRANKFORT      FAIR      85  68  56 CALM      30.03R
$$

KYZ054-064>069-076>088-106>120-050100-
SOUTHEAST KENTUCKY

CITY           SKY/WX    TMP DP  RH WIND       PRES   REMARKS
JACKSON        FAIR      78  67  68 CALM      30.09R
LONDON         FAIR      83  64  52 NE3       30.06R
SOMERSET       FAIR      82  64  54 CALM      30.05R
MIDDLESBORO    FAIR      80  67  66 CALM      30.06R
MONTICELLO     FAIR      79  71  76 CALM      30.06R
$$




USA.gov is the U.S. government's official web portal to all federal, state and local government web resources and services.